QUI SOM?

ITER5 és una empresa especialitzada en el cronometratge i gestió esportiva. Ens adrecem a les institucions públiques i privades, als clubs i associacions esportives per tal de proporcionar els nostres coneixements i recursos.

INFORMACIÓ
  • Complex la Caparrella. Ed. CEEI. 2.7 - 25192 - LLEIDA
  • Lat.: 41.599045 | Long.: 0.581511
  • 635-164-197 / 654-555-394
  • info@iter5.cat

Resultats Volta estany - Ivars - 5K - Edició 2016

Pos. Dorsal Nom T.Oficial
1 5266 OSCAR BALSELLS SALES 00:17:33
2 5027 JOSEP MARIA BERGUA MUÑOZ 00:17:49
3 5092 SERGI NUNES JORDAN 00:18:04
4 5005 FRAN CARRILLO SERRADELL 00:18:21
5 174 XAVI MARQUES 00:18:39
6 402 JOAN COROMINA 00:18:45
7 5051 SERGI BERNAUS TOSQUELLA 00:18:58
8 5049 JORDI BULLO PORTA 00:19:40
9 5035 JOSEP M. BULLO ALEGRE 00:19:53
10 5069 JORDI LEÓN CUELLAS 00:19:55
11 5137 ROGER CERVELLÓ GIBERT 00:20:00
12 5267 QUIM ARGILÉS MACIA 00:20:07
13 5022 PACO BEIRO GONZALEZ 00:20:12
14 5091 JOSEP PONT MORROS 00:20:19
15 5086 MARI SANFELIU IBAÑEZ 00:20:20
16 5011 DAVID ROSELLO MIR 00:20:40
17 5065 JORDI GARCIA I BOSCH 00:20:46
18 5160 ALBERT AYNES HERNANDEZ 00:21:05
19 5050 JÚLIA OLLÉ GATELL 00:21:16
20 5075 ROS PASTOR 00:21:27
21 5087 ALBERT DOLCET CABASES 00:21:44
22 5028 DAVID CURCÓ ALBUIXECH 00:22:08
23 5221 DAVID PANAVERA 00:22:13
24 5002 SANDRA BORDA FORTUNY 00:22:20
25 5056 MIKE MORELL SANGRADOR 00:22:21
26 5057 MANUEL AGUADO CANO 00:22:55
27 5032 MONTSE SANMARTIN MIRÓN 00:23:09
28 5230 ROGER RIBALTA COMAPOSADA 00:23:11
29 5226 BLAI PONS COLL 00:23:12
30 5244 GERARD SUNYER PRAT 00:23:21
31 5252 JOFRE VILLEGAS CODINA 00:23:22
32 5141 BERNAT MORERA MAS 00:23:22
33 5085 ISABEL PASCUAL GARCIA 00:23:29
34 5140 JOAN MONTBRIÓ CODINA 00:23:43
35 5239 DAVID SALTIVERI CIVIT 00:23:49
36 5232 ALBERT ROCA HEREDIA 00:23:50
37 5142 JORDI MORERA MAS 00:23:56
38 5014 ALFRED LLORT PARIS 00:23:59
39 175 LAIA SISQUELLA 00:24:09
40 5025 XAVIER OLIVE GIBERT 00:24:20
41 5120 AMINA EL AAMAYRI 00:24:21
42 5166 SARA ALAS BAIGES 00:24:48
43 5203 ROC JUMILLA SANCHEZ 00:24:52
44 5148 DAVID GREOLES MASA 00:24:52
45 5263 DANIEL MACIÀ SANS 00:24:56
46 5265 CARLES COLL CREPO 00:24:58
47 5135 EDUARD ARANÉS GILI 00:25:15
48 5136 ALBERT RUBIÓ BALAGUÉ 00:25:15
49 5023 MARC BALASCH MORENO 00:25:15
50 5212 DANI MENÉN COSTA 00:25:21
51 5214 ALEIX MIRADA OLIVARES 00:25:25
52 5223 JOEL PIFARRÉ FELIP 00:25:36
53 5233 ERIC ROIG HERRERO 00:25:38
54 5101 DAVID ROIG JABATO 00:25:39
55 5052 ANNA GRAELLS NOGUEROLA 00:25:44
56 5016 ERIKA SORIANO SOLÉ 00:25:49
57 5029 ANNA SANGRÀ CASALS 00:25:54
58 5030 FRANCESC SANGRÀ PASCUAL 00:25:54
59 5071 LORENA MUÑOZ ALVAREZ 00:25:55
60 5058 LAIA ALARCÓN VILAMAJÓ 00:25:55
61 5026 CARLOTA VIDAL-FOLCH I TORRES 00:26:05
62 5008 XAVIER MIQUEL AMOROS 00:26:06
63 5007 PILAR MASBERNAT MARTINEZ 00:26:06
64 5048 GUILLEM CARALPS RUIZ 00:26:06
65 5121 MIQUEL MATEU TAIXA 00:26:06
66 5154 MERI SOLÉ FABREGAT 00:26:12
67 5006 JOSEP MARIA GIL VILÀ 00:26:14
68 5003 CONSOL BOSCH PIJUAN 00:26:14
69 5068 AIDA LATORRE PUIG 00:26:16
70 5108 MONTSE BIOSCA CAUS 00:26:32
71 5162 NATALIA LLANSANA 00:26:44
72 5144 M.CARME ALTISENT SANAHUJA 00:26:44
73 5222 NEUS PEIRÓ CORTÉS 00:26:55
74 5073 SILVIA OLIVARES MERINOS 00:26:59
75 5247 MERITXELL TORRA TRILLA 00:27:00
76 5100 LIDIA FAURA GARCIA 00:27:07
77 5156 MARTA VILIMELIS BLANCH 00:27:10
78 5161 MAR BULLO PORTA 00:27:11
79 5019 MÒNICA DIAGO BOSCH 00:27:13
80 5238 ALEIX SALTIVERI CIVIT 00:27:17
81 5018 IOLANDA ALMENARA MADRID 00:27:24
82 5081 IGNASI VILAPLANA CORREA 00:27:30
83 5105 POL ATERO FARRÉ 00:27:31
84 5107 MANEL ATERO LLAMAS 00:27:36
85 5059 XAVIER BALDOMA CUBERES 00:27:36
86 5155 HECTOR SURROCA VILIMELIS 00:27:41
87 5070 NATALIA MESALLES FLIX 00:27:42
88 5254 ANNA HERNANDEZ 00:27:48
89 5004 MÒNICA CAMACHO GALISTEO 00:27:58
90 5095 JORDI BESORA BESORA 00:28:00
91 348 ESTER ROMERO SANCHEZ 00:28:00
92 5236 JOSEP RUBIOL RAMON 00:28:05
93 5076 ELENA RODRIGUEZ DARBRA 00:28:11
94 5088 LLUÏSA ESTEBAN GIRIBET 00:28:12
95 5182 NÚRIA CAMATS GONZALEZ 00:28:12
96 5224 ANNA PIJUAN ORO 00:28:13
97 5060 ANDREU BATALLA LAPEYRA 00:28:16
98 5180 DANIEL BOTT 00:28:16
99 5072 MÒNICA NADAL PENELLA 00:28:21
100 5074 JENNIFER PARICIO NISPEROS 00:28:25
101 5231 SOL RIBO PONS 00:28:28
102 5198 ANNA GRAELLS MAS 00:28:28
103 5172 GEMMA BARRUFET PERERA 00:28:31
104 5151 JAN BARO GOMEZ 00:28:37
105 5243 NOÈLIA SOLANS FLOTATS 00:28:38
106 5257 ELENA DUOCASTELLA COLOM 00:28:38
107 5207 ANNA MACIÀ CAPELL 00:28:43
108 5170 IRENE BADIA FOLGUERA 00:28:44
109 5152 AINA FLIX FOIX 00:29:03
110 5175 NAÏLA BERNAUS DURAND 00:29:04
111 5171 ALFONSO BALLESTEROS RIBAS 00:29:14
112 5062 MANUEL BLANCO LOPEZ 00:29:21
113 5245 ESTHER SUNYER RIBERT 00:29:25
114 500 SONIA MARTINEZ HEREDIA 00:29:27
115 5064 CRISTINA FARRE BOSCH 00:29:34
116 5216 LAIA NADAL BARÓ 00:29:38
117 5134 SANTI PORTA FERNANDEZ 00:29:40
118 5133 POL PORTA CERVERA 00:29:40
119 5143 SABINA MORERA MAS 00:29:42
120 5218 ORIOL NICOLAU CANELA 00:29:48
121 5255 JORDI PASCUAL TORRES 00:29:54
122 5132 MARIA LLIDÓ MORELL 00:29:54
123 5083 CARME RUIZ AGUILERA 00:29:55
124 5194 DOLORS FARRE VALLVERDU 00:30:16
125 5225 GEMMA PLANELL FARRE 00:30:16
126 5259 MERI PROTOMÁRTIR MARTÍNEZ 00:30:19
127 5099 GEMMA VISENS TORRES 00:30:28
128 5201 GERARD MALFEITO COLELL 00:30:30
129 5215 SUSANNA MOIX SOLANS 00:30:34
130 5253 CARMEN ZARZA DE LA INSUA 00:30:35
131 5112 ISABEL GUASCH VILAPRIÑÓ 00:30:42
132 5241 GAL·LA SISQUELLA FREIXES 00:30:43
133 5082 JAUME SERRET I JORNET 00:30:48
134 5246 ROSA TEMPRANO ANGRILL 00:30:54
135 5165 RAMON PONS SOLÉ 00:31:00
136 5164 PAU PONS ERUSTES 00:31:00
137 5021 ANDREY VICH RODRÍGUEZ 00:31:01
138 5190 MARINA DALMASES TRILLA 00:31:03
139 5020 SÒNIA RODRÍGUEZ PIJUAN 00:31:03
140 5110 VINYET GUASCH ORTIZ 00:31:04
141 5111 AGUSTÍ GUASCH VILAPRIÑÓ 00:31:05
142 5077 ESTER SERÓ NOGUÉS 00:31:13
143 5251 ANNA VILA CERCÓS 00:31:20
144 5240 MARIA SERRANO ROJO 00:31:20
145 5185 LAURA CONDE UBER 00:31:20
146 5010 ROBERT POLO NADAL 00:31:21
147 5009 JAUME POLO ESCUDE 00:31:21
148 5181 PILAR CALDERO DE LA PUENTE 00:31:32
149 5184 MONTSERRAT CARULLA VILÀ 00:31:35
150 5229 BERNAT RAMON PEDRÓS 00:31:36
151 5129 ERIC MARTORELL GIMENEZ 00:31:42
152 5128 TONI MARTORELL CARNE 00:31:42
153 5206 SÒNIA LUNAR CALERO 00:31:48
154 5163 MARIA HERREROS ANGRILL 00:31:49
155 5183 MERITXELL CANELA MAYORAL 00:31:50
156 5249 MARTA VALLVERDÚ TACIES 00:31:52
157 5067 ANA IBARZ 00:31:52
158 5146 MONTSE BOIX FARRAN 00:31:52
159 5145 TOÑI APOLO SANTIAGO 00:31:53
160 5209 ADRIÀ MARTORELL AUBANELL 00:31:58
161 5242 MERITXELL SIVERA PERIS 00:32:10
162 5117 PAU OLID RAMON 00:32:17
163 5116 JOAQUIM OLID CAPITAN 00:32:17
164 5204 MARTA LABIANO JUANENA 00:32:23
165 5213 ANNA MINGUELL SEGURA 00:32:25
166 5258 MÒNICA ARGILÉS PONS 00:32:26
167 5138 GEMMA GIBERT MASIP 00:32:27
168 5024 ANGELS FARRE SAEZ 00:32:27
169 5256 BLANCA TRULL SERDÀ 00:32:29
170 5084 NORMA PONS FONT 00:32:32
171 5054 BERTA GRASET PUIG 00:32:34
172 5197 MAGDA GORGUES SANS 00:32:37
173 5157 JOSEP MARIA CABESTANY CARRÉ 00:32:43
174 5114 IMMA MASO AMIGO 00:32:56
175 5113 NOEL IGLESIAS MEGIAS 00:32:56
176 5202 ANGELA JIRCAN 00:33:01
177 5139 MARIA ROSA MAS FUSTÀ 00:33:02
178 5205 LAURA LÓPEZ BUENACASA 00:33:09
179 5235 VILMA ROSA MARQUEZ 00:33:11
180 5237 LOURDES RUIZ AGUILERA 00:33:12
181 5122 JUAN RODRIGUEZ CRUZ 00:33:43
182 5200 ANNA GUIU TRIQUELL 00:33:44
183 5192 ANNA ESCOLÀ NOGUÉS 00:33:44
184 5186 MARINA CORRETGÉ GINÉ 00:33:44
185 5174 NURIA BERGA MIRANDA 00:33:48
186 5090 BENILDE PELEGRI CUENCA 00:33:55
187 5187 MARTA COS ESPUNÑA 00:34:02
188 5188 MARIA COS ESPUÑA 00:34:02
189 5115 SÍLVIA MONSERRATE GÓMEZ 00:34:07
190 5078 GEMMA TERRATS PIJUAN 00:34:09
191 5195 MªPAU FORNS GABANDÉ 00:34:14
192 5193 NURIA FARRE 00:34:14
193 5227 SARA PORTA PALLEJÀ 00:34:23
194 5103 LLUÏSA ANGUERA ORTIZ 00:34:34
195 5037 PAOLA CARMONA ARIAS 00:34:38
196 5159 CLAUDIA OLIVE BONET 00:34:38
197 5038 VANESA FERNANDEZ 00:34:39
198 5042 JOSE LUIS MARIN LOPEZ 00:34:40
199 5043 JOSEP MARIA NOVAU ORÓ 00:34:40
200 5039 DIANA HERRERA CHACON 00:34:40
201 5047 JUDITH SERRAT ARTIGUES 00:34:40
202 5040 IVAN LLANES DOMINGUEZ 00:34:40
203 5036 MIQUEL BARRUFET CASTELLÓ 00:34:40
204 5045 CARLOTA REGANY RIU 00:34:40
205 5044 JOSEP OLIVE FERRER 00:34:41
206 5158 JOSE ANTONIO OLANO SABATER 00:34:41
207 5046 JUANJO ROMERA RODRIGUEZ 00:34:41
208 5041 NOEMI LLANES DOMINGUEZ 00:34:41
209 5191 ERIC DARBRA GRAELLS 00:34:45
210 5173 AINA BATLLE MAS 00:34:45
211 5033 ANNA MARTINEZ RODRIGUEZ 00:34:59
212 5149 LAURA SALSE ESCRIBA 00:35:16
213 5147 MIREIA CABA MUNTADA 00:35:16
214 507 TERESA VILES MARTIN 00:35:24
215 5219 NÚRIA NIUBÓ CASTELLÓ 00:35:26
216 5130 DAFNE MATEU ALBA 00:35:31
217 5118 MONTSE RIU BERNAUS 00:35:45
218 5125 MONTSE CLUA CASTELLO 00:36:07
219 5017 JAUME PERERA SANTIVERI 00:36:07
220 5168 M. TERESA ARQUE SOLE 00:36:45
221 5179 ISAURA BONJORN SALTIVERI 00:36:45
222 5119 MAGDA CAPELL PERERA 00:37:47
223 5094 ISABEL SARVISE ALBA 00:37:47
224 5220 LIDIA PAMIES BARTRA 00:39:29
225 5176 ERIC BERNAUS MAJÓ 00:40:07
226 5177 MARC BERNAUS MAJÓ 00:40:08
227 5264 ALEIX BERNAUS LISA 00:40:09
228 5131 MIREIA PUIGPINOS MITJAVILA 00:41:09
229 5127 MARI GIMENEZ MARTINEZ 00:41:09
230 5150 CLAUDIA BARO GOMEZ 00:41:38
231 5153 ANNA GOMEZ GRAELL 00:41:38
232 5126 JORDI DIEZ ZUCAR 00:43:01
233 5124 MONICA ALBA SANCHEZ 00:43:01
234 5167 MARTA AMENOS TUDO 00:47:51
235 5228 SILVIA PUIGDEVALL MAJÓ 00:47:51
236 5248 MARIA TORRES TORNE 00:49:18
237 5234 DAVID ROMERO SARRA 00:49:18
238 5178 NÚRIA BONET ROSO 00:53:51
239 5196 MAITE GALIPIENSO GANDARA 00:53:51